CW0133 Weather Reports


time (UTC)temp
C
wind
direction
speed
KPH
gust
KPH
rain 1hr
cm
rain 24hr
cm
rain mn
cm
humidity
%
barometer
mb
20260503215525 28 139 11.3 27.4 0.00 0.00 0.00 32 1019.9
20260503215004 28 143 11.3 22.5 0.00 0.00 0.00 31 1020.0
20260503214525 28 142 11.3 22.5 0.00 0.00 0.00 30 1020.0
20260503214003 28 154 11.3 22.5 0.00 0.00 0.00 32 1020.1
20260503213503 28 166 11.3 20.9 0.00 0.00 0.00 33 1020.2
20260503213004 28 155 11.3 25.7 0.00 0.00 0.00 32 1020.3
20260503212525 28 158 12.9 29.0 0.00 0.00 0.00 35 1020.4
20260503212004 28 153 12.9 29.0 0.00 0.00 0.00 35 1020.6
20260503211525 28 149 11.3 25.7 0.00 0.00 0.00 33 1020.6
20260503211003 28 163 9.7 19.3 0.00 0.00 0.00 32 1020.7
20260503210503 28 170 11.3 22.5 0.00 0.00 0.00 33 1020.7
20260503210005 28 164 12.9 25.7 0.00 0.00 0.00 31 1020.8
20260503205504 27 167 16.1 35.4 0.00 0.00 0.00 33 1021.0
20260503205003 28 174 17.7 35.4 0.00 0.00 0.00 32 1021.1
20260503204525 28 178 12.9 35.4 0.00 0.00 0.00 32 1021.0
20260503204003 28 175 11.3 25.7 0.00 0.00 0.00 31 1021.1
20260503203503 28 164 11.3 25.7 0.00 0.00 0.00 32 1021.4
20260503203004 28 154 12.9 32.2 0.00 0.00 0.00 31 1021.4
20260503202504 28 155 12.9 32.2 0.00 0.00 0.00 32 1021.7
20260503202003 28 152 11.3 22.5 0.00 0.00 0.00 37 1021.7
20260503201504 28 143 9.7 22.5 0.00 0.00 0.00 33 1021.6
20260503201004 28 146 11.3 22.5 0.00 0.00 0.00 33 1021.6
20260503200504 28 147 11.3 22.5 0.00 0.00 0.00 35 1021.7
20260503200025 28 170 12.9 30.6 0.00 0.00 0.00 32 1021.9
20260503195503 28 166 16.1 30.6 0.00 0.00 0.00 32 1022.1
20260503195003 28 150 11.3 32.2 0.00 0.00 0.00 33 1022.1
20260503194525 28 141 12.9 32.2 0.00 0.00 0.00 35 1022.1
20260503194004 27 135 12.9 25.7 0.00 0.00 0.00 34 1022.2
20260503193503 28 157 12.9 29.0 0.00 0.00 0.00 32 1022.3
20260503193004 27 164 16.1 30.6 0.00 0.00 0.00 31 1022.4
20260503192504 28 141 12.9 30.6 0.00 0.00 0.00 34 1022.4
20260503192003 28 140 12.9 29.0 0.00 0.00 0.00 35 1022.5
20260503191503 27 166 12.9 29.0 0.00 0.00 0.00 36 1022.4
20260503191004 27 174 16.1 30.6 0.00 0.00 0.00 35 1022.5
20260503190503 27 168 16.1 30.6 0.00 0.00 0.00 37 1022.6
20260503190004 27 172 11.3 27.4 0.00 0.00 0.00 35 1022.6
20260503185504 27 171 12.9 29.0 0.00 0.00 0.00 36 1022.7
20260503185003 27 156 12.9 30.6 0.00 0.00 0.00 35 1022.9
20260503184503 27 152 11.3 30.6 0.00 0.00 0.00 35 1023.1
20260503184004 27 150 11.3 22.5 0.00 0.00 0.00 38 1023.1
20260503183503 27 156 12.9 25.7 0.00 0.00 0.00 34 1023.3
20260503183004 27 168 11.3 25.7 0.00 0.00 0.00 35 1023.2
20260503182503 27 177 11.3 27.4 0.00 0.00 0.00 37 1023.3
20260503182004 27 174 12.9 30.6 0.00 0.00 0.00 35 1023.5
20260503181524 27 155 12.9 30.6 0.00 0.00 0.00 37 1023.6
20260503181004 27 151 11.3 25.7 0.00 0.00 0.00 36 1023.6
20260503180524 27 146 11.3 25.7 0.00 0.00 0.00 37 1023.7
20260503180004 27 153 9.7 25.7 0.00 0.00 0.00 37 1023.8
20260503175503 27 160 9.7 29.0 0.00 0.00 0.00 39 1023.8
20260503175024 26 161 12.9 29.0 0.00 0.00 0.00 37 1023.9
20260503174503 26 173 12.9 27.4 0.00 0.00 0.00 36 1023.9
20260503174003 26 166 11.3 27.4 0.00 0.00 0.00 36 1024.0
20260503173503 26 164 12.9 27.4 0.00 0.00 0.00 36 1024.3
20260503173003 26 167 12.9 25.7 0.00 0.00 0.00 36 1024.3
20260503172504 26 168 12.9 25.7 0.00 0.00 0.00 37 1024.4
20260503172004 26 156 12.9 25.7 0.00 0.00 0.00 36 1024.6
20260503171503 26 142 11.3 25.7 0.00 0.00 0.00 38 1024.6
20260503171003 26 163 12.9 27.4 0.00 0.00 0.00 39 1024.6
20260503170503 26 158 11.3 27.4 0.00 0.00 0.00 41 1024.6
20260503151003 22 201 8.0 17.7 0.00 0.00 0.00 57 1025.2
20260503150503 22 206 8.0 19.3 0.00 0.00 0.00 55 1025.2
20260503131025 10 25 1.6 3.2 0.00 0.00 0.00 94 1024.6
20260503130504 10 25 0.0 3.2 0.00 0.00 0.00 93 1024.5
20260503110504 8 25 0.0 1.6 0.00 0.00 0.00 90 1023.8
20260503090504 9 0 0.0 0.0 0.00 0.00 0.00 89 1023.2
20260503081524 10 0 0.0 0.0 0.00 0.00 0.00 88 1023.3
20260503081025 10 0 0.0 0.0 0.00 0.00 0.00 88 1023.2
20260503080504 10 0 0.0 0.0 0.00 0.00 0.00 88 1023.2
20260503072503 10 25 1.6 1.6 0.00 0.00 0.00 87 1023.7
20260503072024 10 25 0.0 1.6 0.00 0.00 0.00 87 1023.6
20260503071504 10 0 0.0 0.0 0.00 0.00 0.00 87 1023.7
20260503071024 10 0 0.0 0.0 0.00 0.00 0.00 87 1023.7
20260503070503 10 0 0.0 0.0 0.00 0.00 0.00 87 1023.6
20260503055025 11 25 1.6 3.2 0.00 0.00 0.00 84 1023.7
20260503054503 11 25 0.0 3.2 0.00 0.00 0.00 84 1023.8
20260503054003 11 0 0.0 0.0 0.00 0.00 0.00 84 1023.8
20260503053503 11 0 0.0 0.0 0.00 0.00 0.00 84 1023.8
20260503053003 11 25 0.0 1.6 0.00 0.00 0.00 84 1023.7
20260503052503 11 25 0.0 1.6 0.00 0.00 0.00 84 1023.7
20260503052003 11 25 0.0 1.6 0.00 0.00 0.00 84 1023.7
20260503051503 11 25 0.0 1.6 0.00 0.00 0.00 83 1023.8
20260503051003 12 25 0.0 1.6 0.00 0.00 0.00 83 1023.8
20260503050503 12 25 0.0 1.6 0.00 0.00 0.00 83 1023.8
20260503050003 12 25 0.0 1.6 0.00 0.00 0.00 83 1023.9
20260503045503 12 25 0.0 1.6 0.00 0.00 0.00 83 1023.8
20260503045003 12 25 0.0 1.6 0.00 0.00 0.00 83 1023.8
20260503044504 12 25 0.0 1.6 0.00 0.00 0.00 83 1023.8
20260503044003 12 25 0.0 1.6 0.00 0.00 0.00 82 1023.8
20260503043503 12 25 0.0 1.6 0.00 0.00 0.00 82 1023.8
20260503043004 12 25 0.0 3.2 0.00 0.00 0.00 82 1023.8
20260503042503 12 25 0.0 3.2 0.00 0.00 0.00 81 1023.8
20260503042003 12 25 0.0 3.2 0.00 0.00 0.00 81 1023.8
20260503041524 12 25 0.0 1.6 0.00 0.00 0.00 81 1023.7
20260503041003 12 25 0.0 1.6 0.00 0.00 0.00 81 1023.5
20260503040524 13 25 0.0 1.6 0.00 0.00 0.00 80 1023.5
20260503040003 13 25 0.0 1.6 0.00 0.00 0.00 80 1023.5
20260503035503 13 25 1.6 1.6 0.00 0.00 0.00 79 1023.5
20260503035003 13 25 1.6 3.2 0.00 0.00 0.00 79 1023.5
20260503034503 13 25 1.6 3.2 0.00 0.00 0.00 78 1023.5
20260503034003 13 25 0.0 1.6 0.00 0.00 0.00 78 1023.4
20260503033524 13 25 0.0 1.6 0.00 0.00 0.00 77 1023.4
20260503033003 13 25 0.0 1.6 0.00 0.00 0.00 77 1023.2
20260503032503 13 25 1.6 3.2 0.00 0.00 0.00 77 1023.2
20260503032024 14 25 1.6 3.2 0.00 0.00 0.00 76 1023.2
20260503031503 14 25 0.0 1.6 0.00 0.00 0.00 76 1023.2
20260503031024 14 0 0.0 0.0 0.00 0.00 0.00 75 1023.1
20260503030503 15 0 0.0 0.0 0.00 0.00 0.00 75 1023.0
20260503030024 15 0 0.0 0.0 0.00 0.00 0.00 75 1023.0
20260503025524 15 25 0.0 1.6 0.00 0.00 0.00 74 1023.0
20260503025024 15 25 0.0 1.6 0.00 0.00 0.00 73 1022.9
20260503024503 15 25 1.6 3.2 0.00 0.00 0.00 73 1023.0
20260503024003 15 25 1.6 3.2 0.00 0.00 0.00 72 1022.9
20260503023524 16 25 0.0 1.6 0.00 0.00 0.00 72 1022.7
20260503023003 16 25 0.0 1.6 0.00 0.00 0.00 72 1022.6
20260503022503 16 25 0.0 1.6 0.00 0.00 0.00 71 1022.5
20260503022003 16 25 0.0 1.6 0.00 0.00 0.00 70 1022.4
20260503021503 17 0 0.0 0.0 0.00 0.00 0.00 69 1022.3
20260503021003 17 25 0.0 1.6 0.00 0.00 0.00 67 1022.2
20260503020503 17 25 0.0 1.6 0.00 0.00 0.00 67 1022.2
20260503020003 17 25 0.0 3.2 0.00 0.00 0.00 66 1022.2
20260503015503 18 25 0.0 3.2 0.00 0.00 0.00 65 1022.1
20260503015003 18 25 0.0 1.6 0.00 0.00 0.00 63 1022.2
20260503014503 18 25 0.0 1.6 0.00 0.00 0.00 62 1022.1
20260503014024 19 25 0.0 1.6 0.00 0.00 0.00 61 1022.1
20260503013503 20 25 0.0 1.6 0.00 0.00 0.00 60 1022.1
20260503013004 20 25 0.0 1.6 0.00 0.00 0.00 59 1022.1
20260503012504 20 25 0.0 3.2 0.00 0.00 0.00 58 1022.1
20260503012004 20 25 1.6 3.2 0.00 0.00 0.00 58 1022.0
20260503011504 21 25 1.6 6.4 0.00 0.00 0.00 57 1021.8
20260503011004 21 25 1.6 6.4 0.00 0.00 0.00 56 1021.9
20260503010504 21 25 0.0 6.4 0.00 0.00 0.00 55 1021.9
20260503010004 22 25 0.0 1.6 0.00 0.00 0.00 53 1021.8
20260503005504 22 25 0.0 3.2 0.00 0.00 0.00 52 1021.9
20260503005004 22 25 0.0 6.4 0.00 0.00 0.00 51 1021.8
20260503004525 22 25 1.6 6.4 0.00 0.00 0.00 50 1021.8
20260503004004 22 25 1.6 6.4 0.00 0.00 0.00 47 1021.8
20260503003525 23 25 1.6 6.4 0.00 0.00 0.00 46 1021.7
20260503003004 23 26 3.2 8.0 0.00 0.00 0.00 46 1021.6
20260503002504 23 26 3.2 8.0 0.00 0.00 0.00 44 1021.7
20260503002004 23 28 6.4 11.3 0.00 0.00 0.00 43 1021.7
20260503001503 23 34 6.4 11.3 0.00 0.00 0.00 42 1021.7
20260503001003 23 45 6.4 12.9 0.00 0.00 0.00 42 1021.7
20260503000525 23 61 3.2 12.9 0.00 0.00 0.00 41 1021.6
20260503000025 23 23 3.2 11.3 0.00 0.03 0.00 43 1021.7
20260502235504 23 355 6.4 12.9 0.00 0.03 0.00 41 1021.7
20260502235003 23 3 6.4 16.1 0.00 0.03 0.00 41 1021.7
20260502234504 23 354 6.4 16.1 0.00 0.03 0.00 41 1021.7
20260502234004 24 349 6.4 12.9 0.00 0.03 0.00 40 1021.6
20260502233504 24 338 6.4 11.3 0.00 0.03 0.00 41 1021.7
20260502233004 24 17 6.4 16.1 0.00 0.03 0.00 38 1021.7
20260502232504 24 53 6.4 16.1 0.00 0.03 0.00 40 1021.5
20260502232003 25 30 8.0 17.7 0.00 0.03 0.00 40 1021.6
20260502231525 25 18 8.0 17.7 0.00 0.03 0.00 39 1021.6
20260502231004 25 4 8.0 16.1 0.00 0.03 0.00 39 1021.6
20260502230504 25 8 9.7 17.7 0.00 0.03 0.00 39 1021.6
20260502230004 25 27 6.4 17.7 0.00 0.03 0.00 38 1021.5
20260502225504 25 63 8.0 19.3 0.00 0.03 0.00 39 1021.5
20260502225004 25 47 9.7 19.3 0.00 0.03 0.00 39 1021.5
20260502224504 25 30 8.0 19.3 0.00 0.03 0.00 37 1021.5
20260502224003 25 32 8.0 17.7 0.00 0.03 0.00 38 1021.5
20260502223504 26 36 8.0 16.1 0.00 0.03 0.00 39 1021.5
20260502223004 26 32 8.0 17.7 0.00 0.03 0.00 37 1021.6
20260502222504 26 24 9.7 20.9 0.00 0.05 0.00 38 1021.6
20260502222004 26 13 11.3 25.7 0.00 0.05 0.00 37 1021.7
20260502221504 26 11 11.3 29.0 0.00 0.08 0.00 37 1021.7
20260502221004 26 30 9.7 29.0 0.00 0.08 0.00 36 1021.6
20260502220525 26 28 9.7 22.5 0.00 0.10 0.00 36 1021.6
20260502220003 26 18 6.4 22.5 0.00 0.18 0.00 36 1021.8